KO4LCK Weather Reports


time (UTC)temp
C
wind
direction
speed
KPH
gust
KPH
rain 1hr
cm
rain 24hr
cm
rain mn
cm
humidity
%
barometer
mb
20260906100906 22 335 0.0 0.0 0.00 0.00 0.00 96 1013.6
20260906100406 22 34 3.2 4.8 0.00 0.00 0.00 96 1013.6
20260906095901 22 30 3.2 4.8 0.00 0.00 0.00 96 1013.7
20260906095356 22 12 3.2 4.8 0.00 0.00 0.00 96 1013.7
20260906094855 22 2 3.2 3.2 0.00 0.00 0.00 96 1013.8
20260906094351 21 0 0.0 0.0 0.00 0.00 0.00 96 1013.9
20260906093847 22 317 0.0 0.0 0.00 0.00 0.00 96 1014.0
20260906093343 22 275 0.0 0.0 0.00 0.00 0.00 96 1014.0
20260906092843 22 275 0.0 0.0 0.00 0.00 0.00 96 1014.0
20260906092337 22 271 0.0 0.0 0.00 0.00 0.00 96 1014.1
20260906091833 22 271 0.0 0.0 0.00 0.00 0.00 96 1013.9
20260906091329 22 305 0.0 0.0 0.00 0.00 0.00 96 1014.0
20260906090826 22 323 0.0 0.0 0.00 0.00 0.00 96 1013.9
20260906090325 22 304 0.0 0.0 0.00 0.00 0.00 96 1013.8
20260906085825 22 322 0.0 0.0 0.00 0.00 0.00 96 1014.0
20260906085324 22 318 0.0 0.0 0.00 0.00 0.00 96 1013.8
20260906084819 21 318 0.0 0.0 0.00 0.00 0.00 96 1013.8
20260906084318 21 20 0.0 1.6 0.00 0.00 0.00 96 1014.0
20260906083813 22 0 1.6 3.2 0.00 0.00 0.00 96 1014.1
20260906083308 22 324 0.0 1.6 0.00 0.00 0.00 96 1013.8
20260906082803 22 291 0.0 0.0 0.00 0.00 0.00 96 1013.8
20260906082258 22 291 0.0 0.0 0.00 0.00 0.00 96 1013.6
20260906081754 22 291 0.0 0.0 0.00 0.00 0.00 96 1013.5
20260906081249 22 290 0.0 0.0 0.00 0.00 0.00 96 1013.3
20260906080746 22 288 0.0 0.0 0.00 0.00 0.00 96 1013.1
20260906080242 22 288 0.0 0.0 0.00 0.00 0.00 96 1013.1
20260906075742 22 288 0.0 1.6 0.00 0.00 0.00 96 1013.2
20260906075242 22 313 0.0 0.0 0.00 0.00 0.00 96 1013.2
20260906074737 22 314 0.0 0.0 0.00 0.00 0.00 96 1013.3
20260906074236 22 325 0.0 1.6 0.00 0.00 0.00 96 1013.3
20260906073736 22 9 0.0 0.0 0.00 0.00 0.00 95 1013.2
20260906073231 22 310 0.0 0.0 0.00 0.00 0.00 96 1013.3
20260906072727 22 335 0.0 0.0 0.00 0.00 0.00 96 1013.5
20260906072222 22 306 0.0 0.0 0.00 0.00 0.00 95 1013.3
20260906071718 22 313 0.0 0.0 0.00 0.00 0.00 95 1013.5
20260906071218 22 312 0.0 0.0 0.00 0.00 0.00 95 1013.7
20260906070715 22 313 0.0 0.0 0.00 0.00 0.00 95 1013.6
20260906070210 22 316 0.0 0.0 0.00 0.00 0.00 95 1013.3
20260906065709 22 333 0.0 0.0 0.00 0.00 0.00 95 1013.2
20260906065205 22 326 0.0 0.0 0.00 0.00 0.00 95 1013.4
20260906064701 22 317 0.0 0.0 0.00 0.00 0.00 95 1013.6
20260906064201 22 318 0.0 0.0 0.00 0.00 0.00 95 1013.7
20260906063656 22 326 0.0 0.0 0.00 0.00 0.00 95 1013.6
20260906063152 22 337 0.0 0.0 0.00 0.00 0.00 95 1013.5
20260906062648 22 320 0.0 0.0 0.00 0.00 0.00 95 1013.5
20260906062146 22 320 0.0 0.0 0.00 0.00 0.00 95 1013.5
20260906061642 22 320 0.0 0.0 0.00 0.00 0.00 95 1013.7
20260906061143 22 320 0.0 0.0 0.00 0.00 0.00 94 1013.6
20260906060639 22 320 0.0 0.0 0.00 0.00 0.00 94 1013.8
20260906060136 22 309 0.0 0.0 0.00 0.00 0.00 94 1013.9
20260906055632 22 314 0.0 0.0 0.00 0.00 0.00 94 1013.7
20260906055127 22 314 0.0 0.0 0.00 0.00 0.00 94 1013.7
20260906054622 22 314 0.0 0.0 0.00 0.00 0.00 94 1013.6
20260906054117 22 316 0.0 0.0 0.00 0.00 0.00 94 1013.6
20260906053614 22 348 0.0 0.0 0.00 0.00 0.00 93 1014.0
20260906053114 22 13 1.6 1.6 0.00 0.00 0.00 93 1014.0
20260906052609 22 29 3.2 3.2 0.00 0.00 0.00 93 1014.0
20260906052106 23 23 1.6 1.6 0.00 0.00 0.00 92 1014.1
20260906051602 23 305 0.0 0.0 0.00 0.00 0.00 91 1014.0
20260906051057 23 304 0.0 0.0 0.00 0.00 0.00 91 1014.1
20260906050552 23 307 0.0 0.0 0.00 0.00 0.00 91 1014.1
20260906050047 23 296 0.0 0.0 0.00 0.00 0.00 92 1014.1
20260906045545 23 285 0.0 0.0 0.00 0.00 0.00 92 1014.1
20260906045041 23 284 0.0 0.0 0.00 0.00 0.00 92 1014.2
20260906044537 23 271 0.0 0.0 0.00 0.00 0.00 92 1014.3
20260906044032 23 287 0.0 0.0 0.00 0.00 0.00 92 1014.3
20260906043528 23 292 0.0 0.0 0.00 0.00 0.00 92 1014.4
20260906043024 23 327 0.0 0.0 0.00 0.00 0.00 91 1014.6
20260906042522 23 301 0.0 0.0 0.00 0.00 0.00 92 1014.5
20260906042017 23 302 0.0 0.0 0.00 0.00 0.00 92 1014.3
20260906041514 23 317 0.0 0.0 0.00 0.00 0.00 92 1014.4
20260906041013 23 345 0.0 0.0 0.00 0.00 0.00 91 1014.3
20260906040508 23 318 0.0 0.0 0.00 0.00 0.00 91 1014.1
20260906040004 23 351 0.0 0.0 0.00 0.03 0.03 91 1014.2
20260906035459 23 316 0.0 0.0 0.00 0.03 0.03 90 1014.3
20260906034955 23 302 0.0 0.0 0.00 0.03 0.03 90 1014.3
20260906034454 23 323 0.0 0.0 0.00 0.03 0.03 89 1014.6
20260906033949 23 291 0.0 0.0 0.00 0.03 0.03 89 1014.5
20260906033444 23 294 0.0 0.0 0.00 0.03 0.03 89 1014.5
20260906032940 23 307 0.0 0.0 0.00 0.03 0.03 89 1014.4
20260906032437 23 341 0.0 0.0 0.00 0.03 0.03 88 1014.4
20260906031936 24 312 0.0 0.0 0.00 0.03 0.03 87 1014.3
20260906031432 25 319 0.0 0.0 0.00 0.03 0.03 85 1014.4
20260906030927 25 318 0.0 1.6 0.00 0.03 0.03 83 1014.4
20260906030421 25 307 0.0 1.6 0.00 0.03 0.03 80 1014.4
20260906025916 26 291 0.0 1.6 0.00 0.03 0.03 79 1014.4
20260906025410 26 324 1.6 3.2 0.00 0.03 0.03 78 1014.3
20260906024909 26 307 0.0 1.6 0.00 0.03 0.03 78 1014.4
20260906024409 25 322 1.6 1.6 0.00 0.03 0.03 79 1014.3
20260906023904 25 262 1.6 3.2 0.00 0.03 0.03 80 1014.3
20260906023401 25 341 0.0 0.0 0.00 0.03 0.03 82 1014.1
20260906022900 25 318 0.0 0.0 0.00 0.03 0.03 82 1014.4
20260906022355 25 331 1.6 4.8 0.00 0.03 0.03 84 1014.3
20260906021851 25 354 0.0 0.0 0.00 0.03 0.03 89 1014.0
20260906021350 25 286 0.0 0.0 0.00 0.03 0.03 88 1014.1
20260906020845 24 20 0.0 0.0 0.00 0.03 0.03 90 1014.2
20260906020344 24 17 1.6 3.2 0.00 0.03 0.03 91 1014.5
20260906015840 24 10 3.2 3.2 0.00 0.03 0.03 90 1014.5
20260906015339 25 317 0.0 0.0 0.00 0.03 0.03 90 1014.5
20260906014839 24 350 0.0 3.2 0.00 0.03 0.03 90 1014.3
20260906014333 25 318 0.0 0.0 0.00 0.03 0.03 90 1014.2
20260906013830 25 304 0.0 0.0 0.00 0.03 0.03 89 1013.9
20260906013325 25 313 0.0 0.0 0.00 0.03 0.03 89 1014.1
20260906012821 25 15 1.6 1.6 0.00 0.03 0.03 88 1013.9
20260906012320 25 310 0.0 0.0 0.00 0.03 0.03 90 1013.9
20260906011815 25 287 0.0 0.0 0.00 0.03 0.03 90 1013.8
20260906011309 25 302 0.0 0.0 0.00 0.03 0.03 92 1013.7
20260906010806 24 330 0.0 0.0 0.00 0.03 0.03 92 1013.6
20260906010301 24 263 0.0 0.0 0.00 0.03 0.03 93 1013.3
20260906005756 24 263 0.0 0.0 0.00 0.03 0.03 93 1013.3
20260906005255 24 295 0.0 0.0 0.00 0.03 0.03 93 1012.9
20260906004754 24 340 0.0 1.6 0.00 0.03 0.03 93 1012.7
20260906004250 25 323 0.0 0.0 0.00 0.03 0.03 92 1012.7
20260906003749 25 11 0.0 0.0 0.00 0.03 0.03 91 1012.6
20260906003245 25 43 1.6 3.2 0.00 0.03 0.03 88 1012.6
20260906002740 25 342 0.0 0.0 0.00 0.03 0.03 88 1012.5
20260906002240 25 330 0.0 1.6 0.00 0.03 0.03 87 1012.6
20260906001736 25 296 0.0 0.0 0.00 0.03 0.03 87 1012.5
20260906001231 25 299 0.0 0.0 0.00 0.03 0.03 88 1012.5
20260906000726 25 311 0.0 0.0 0.00 0.03 0.03 87 1012.8
20260906000226 25 307 0.0 0.0 0.00 0.03 0.03 88 1012.8
20260905235721 25 331 0.0 0.0 0.00 0.03 0.03 89 1012.9
20260905235215 25 325 0.0 0.0 0.00 0.03 0.03 89 1013.0
20260905234711 26 345 0.0 1.6 0.00 0.03 0.03 88 1013.0
20260905234206 26 294 0.0 0.0 0.00 0.03 0.03 88 1013.2
20260905233701 26 351 1.6 3.2 0.00 0.03 0.03 88 1013.0
20260905233201 26 11 1.6 1.6 0.00 0.03 0.03 86 1013.1
20260905232656 26 286 0.0 0.0 0.00 0.03 0.03 87 1012.8
20260905232152 25 291 0.0 0.0 0.00 0.03 0.03 88 1012.8
20260905231647 25 263 0.0 0.0 0.00 0.03 0.03 89 1012.5
20260905231143 25 244 0.0 1.6 0.00 0.03 0.03 90 1012.4
20260905230639 25 322 0.0 0.0 0.00 0.03 0.03 91 1012.1
20260905230137 25 17 3.2 4.8 0.00 0.03 0.03 91 1012.1
20260905225637 25 31 3.2 6.4 0.00 0.03 0.03 89 1012.0
20260905225137 25 22 6.4 9.7 0.00 0.03 0.03 90 1012.2
20260905224636 26 39 3.2 3.2 0.00 0.03 0.03 87 1012.3
20260905224136 26 3 0.0 3.2 0.00 0.03 0.03 83 1012.1
20260905223633 26 8 1.6 9.7 0.00 0.03 0.03 81 1012.2
20260905223129 26 18 3.2 6.4 0.00 0.03 0.03 82 1012.2
20260905222624 25 347 4.8 6.4 0.18 0.03 0.03 83 1012.2
20260905222119 26 15 3.2 12.9 0.18 0.03 0.03 81 1012.3
20260905221615 26 21 4.8 12.9 0.00 0.00 0.00 80 1012.4
20260905221111 28 92 9.7 20.9 0.00 0.00 0.00 75 1012.7
20260905220607 32 88 17.7 30.6 0.00 0.00 0.00 62 1012.7
20260905220103 33 3 8.0 14.5 0.00 0.00 0.00 53 1012.6
20260905215602 35 28 6.4 20.9 0.00 0.00 0.00 48 1012.7
20260905215058 36 350 3.2 3.2 0.00 0.00 0.00 44 1012.2
20260905214555 36 28 3.2 4.8 0.00 0.00 0.00 42 1012.2
20260905214054 37 332 1.6 3.2 0.00 0.00 0.00 41 1012.0
20260905213550 37 351 1.6 3.2 0.00 0.00 0.00 41 1011.8
20260905213045 38 35 3.2 6.4 0.00 0.00 0.00 40 1011.7
20260905212545 38 262 0.0 11.3 0.00 0.00 0.00 39 1011.8
20260905212045 38 328 0.0 3.2 0.00 0.00 0.00 37 1011.7
20260905211540 38 347 3.2 4.8 0.00 0.00 0.00 36 1012.0
20260905211036 38 20 4.8 9.7 0.00 0.00 0.00 37 1011.8
20260905210532 38 302 1.6 1.6 0.00 0.00 0.00 37 1011.9
20260905210032 38 333 1.6 4.8 0.00 0.00 0.00 39 1011.7
20260905205531 39 272 0.0 9.7 0.00 0.00 0.00 39 1011.8
20260905205030 40 317 0.0 1.6 0.00 0.00 0.00 36 1011.9
20260905204525 40 277 0.0 3.2 0.00 0.00 0.00 36 1011.9
20260905204021 39 266 0.0 1.6 0.00 0.00 0.00 38 1012.1
20260905203520 38 261 0.0 3.2 0.00 0.00 0.00 38 1012.3
20260905203016 38 249 0.0 1.6 0.00 0.00 0.00 39 1012.2
20260905202511 37 34 1.6 4.8 0.00 0.00 0.00 39 1012.4
20260905202006 37 294 0.0 3.2 0.00 0.00 0.00 40 1012.2
20260905201502 38 13 3.2 6.4 0.00 0.00 0.00 38 1012.3
20260905201001 38 56 8.0 11.3 0.00 0.00 0.00 38 1012.6
20260905200457 39 78 6.4 11.3 0.00 0.00 0.00 37 1012.3
20260905195955 39 231 0.0 3.2 0.00 0.00 0.00 37 1012.3
20260905195450 38 296 3.2 4.8 0.00 0.00 0.00 38 1012.5
20260905194946 38 332 3.2 6.4 0.00 0.00 0.00 37 1012.5
20260905194445 38 339 3.2 3.2 0.00 0.00 0.00 38 1012.7
20260905193940 37 274 0.0 1.6 0.00 0.00 0.00 41 1012.6
20260905193440 37 329 1.6 4.8 0.00 0.00 0.00 40 1012.6
20260905192935 38 30 8.0 9.7 0.00 0.00 0.00 37 1012.8
20260905192431 38 274 1.6 3.2 0.00 0.00 0.00 38 1012.9
20260905191926 37 73 0.0 9.7 0.00 0.00 0.00 39 1012.9
20260905191420 38 293 0.0 3.2 0.00 0.00 0.00 38 1013.1
20260905190920 38 21 0.0 3.2 0.00 0.00 0.00 38 1013.1
20260905190418 37 202 1.6 3.2 0.00 0.00 0.00 40 1013.2
20260905185916 37 297 1.6 3.2 0.00 0.00 0.00 42 1013.2
20260905185412 37 342 4.8 6.4 0.00 0.00 0.00 42 1013.4
20260905184911 38 27 8.0 9.7 0.00 0.00 0.00 40 1013.6
20260905184411 39 187 3.2 6.4 0.00 0.00 0.00 40 1013.4
20260905183909 38 258 1.6 1.6 0.00 0.00 0.00 41 1013.5
20260905183404 38 312 1.6 3.2 0.00 0.00 0.00 41 1013.7
20260905182859 37 187 4.8 6.4 0.00 0.00 0.00 43 1013.6
20260905182358 38 18 8.0 9.7 0.00 0.00 0.00 41 1013.9
20260905181855 37 191 1.6 3.2 0.00 0.00 0.00 42 1014.0
20260905181354 36 56 3.2 6.4 0.00 0.00 0.00 41 1014.0
20260905180853 37 19 1.6 9.7 0.00 0.00 0.00 43 1013.9
20260905180349 37 31 8.0 9.7 0.00 0.00 0.00 45 1014.1
20260905175844 36 8 1.6 3.2 0.00 0.00 0.00 45 1014.0
20260905175343 36 359 4.8 6.4 0.00 0.00 0.00 47 1014.2
20260905174838 37 20 8.0 11.3 0.00 0.00 0.00 47 1014.3
20260905174335 37 4 1.6 6.4 0.00 0.00 0.00 44 1014.4
20260905173830 37 324 1.6 4.8 0.00 0.00 0.00 45 1014.4
20260905173326 37 285 0.0 9.7 0.00 0.00 0.00 46 1014.2
20260905172826 37 280 1.6 6.4 0.00 0.00 0.00 46 1014.3
20260905172324 37 346 3.2 9.7 0.00 0.00 0.00 47 1014.5
20260905171820 36 249 0.0 3.2 0.00 0.00 0.00 49 1014.6
20260905171317 36 152 4.8 6.4 0.00 0.00 0.00 47 1014.8
20260905170813 36 42 3.2 6.4 0.00 0.00 0.00 47 1014.7
20260905170308 37 98 4.8 12.9 0.00 0.00 0.00 47 1014.7
20260905165807 37 258 1.6 3.2 0.00 0.00 0.00 48 1014.8
20260905165306 37 321 1.6 6.4 0.00 0.00 0.00 48 1014.9
20260905164803 36 282 1.6 3.2 0.00 0.00 0.00 50 1014.9
20260905164258 35 326 1.6 4.8 0.00 0.00 0.00 51 1014.9
20260905163753 35 292 0.0 3.2 0.00 0.00 0.00 52 1014.8
20260905163250 35 56 6.4 11.3 0.00 0.00 0.00 52 1015.1
20260905162746 35 61 9.7 11.3 0.00 0.00 0.00 51 1015.0
20260905162245 35 309 1.6 4.8 0.00 0.00 0.00 54 1015.3
20260905161739 35 278 0.0 4.8 0.00 0.00 0.00 54 1015.3
20260905161239 34 98 0.0 9.7 0.00 0.00 0.00 55 1015.4
20260905160737 35 206 1.6 4.8 0.00 0.00 0.00 54 1015.4
20260905160237 35 285 0.0 4.8 0.00 0.00 0.00 53 1015.6
20260905155732 35 263 3.2 4.8 0.00 0.00 0.00 53 1015.7
20260905155231 35 34 1.6 3.2 0.00 0.00 0.00 54 1015.5
20260905154725 35 225 1.6 4.8 0.00 0.00 0.00 54 1015.7
20260905154221 35 292 0.0 3.2 0.00 0.00 0.00 57 1015.7
20260905153716 34 97 1.6 3.2 0.00 0.00 0.00 56 1015.7
20260905153212 34 288 1.6 1.6 0.00 0.00 0.00 59 1015.9
20260905152707 33 295 0.0 1.6 0.00 0.00 0.00 60 1015.9
20260905152201 33 267 1.6 1.6 0.00 0.00 0.00 61 1015.7
20260905151656 34 238 3.2 4.8 0.00 0.00 0.00 58 1015.9
20260905151151 33 280 1.6 1.6 0.00 0.00 0.00 59 1015.7
20260905150646 33 198 0.0 1.6 0.00 0.00 0.00 59 1015.8
20260905150145 33 199 1.6 3.2 0.00 0.00 0.00 60 1015.9
20260905145643 32 278 0.0 0.0 0.00 0.00 0.00 63 1015.9
20260905145143 32 282 1.6 1.6 0.00 0.00 0.00 64 1015.9
20260905144637 32 285 0.0 0.0 0.00 0.00 0.00 65 1015.9
20260905144136 31 288 0.0 1.6 0.00 0.00 0.00 66 1015.8
20260905143632 31 263 1.6 1.6 0.00 0.00 0.00 66 1015.8
20260905143132 31 178 1.6 3.2 0.00 0.00 0.00 65 1016.0
20260905142630 31 266 0.0 1.6 0.00 0.00 0.00 67 1016.1
20260905142130 31 259 0.0 1.6 0.00 0.00 0.00 68 1015.9
20260905141624 30 267 0.0 1.6 0.00 0.00 0.00 69 1016.0
20260905141121 30 247 1.6 1.6 0.00 0.00 0.00 70 1016.0
20260905140616 30 124 3.2 3.2 0.00 0.00 0.00 69 1016.0
20260905140115 30 320 0.0 1.6 0.00 0.00 0.00 71 1016.0
20260905135610 30 278 0.0 1.6 0.00 0.00 0.00 74 1016.3
20260905135105 29 272 0.0 1.6 0.00 0.00 0.00 74 1016.5
20260905134600 29 285 0.0 1.6 0.00 0.00 0.00 75 1016.5
20260905134059 28 299 0.0 1.6 0.00 0.00 0.00 77 1016.4
20260905133555 28 261 0.0 0.0 0.00 0.00 0.00 76 1016.4
20260905133054 28 300 0.0 0.0 0.00 0.00 0.00 77 1016.6
20260905132554 28 269 0.0 0.0 0.00 0.00 0.00 77 1016.7
20260905132049 27 296 0.0 0.0 0.00 0.00 0.00 79 1016.5
20260905131544 27 284 0.0 0.0 0.00 0.00 0.00 81 1016.6
20260905131040 27 276 0.0 1.6 0.00 0.00 0.00 81 1016.7
20260905130538 26 285 0.0 0.0 0.00 0.00 0.00 83 1016.8
20260905130034 26 288 0.0 0.0 0.00 0.00 0.00 85 1016.8
20260905125533 25 293 0.0 0.0 0.00 0.00 0.00 88 1016.8
20260905125029 25 299 0.0 0.0 0.00 0.00 0.00 91 1016.7
20260905124525 23 291 0.0 0.0 0.00 0.00 0.00 93 1016.7
20260905124021 23 287 0.0 0.0 0.00 0.00 0.00 94 1016.6
20260905123517 23 291 0.0 0.0 0.00 0.00 0.00 94 1016.7
20260905123013 23 335 0.0 0.0 0.00 0.00 0.00 95 1016.5
20260905122508 22 333 0.0 1.6 0.00 0.00 0.00 96 1016.4
20260905122003 22 271 0.0 0.0 0.00 0.00 0.00 96 1016.7
20260905121457 22 294 0.0 0.0 0.00 0.00 0.00 96 1016.5
20260905120956 22 286 0.0 0.0 0.00 0.00 0.00 96 1016.6
20260905120451 22 286 0.0 0.0 0.00 0.00 0.00 96 1016.1
20260905115946 22 285 0.0 0.0 0.00 0.00 0.00 96 1016.3
20260905115446 22 285 0.0 0.0 0.00 0.00 0.00 96 1016.1
20260905114941 21 285 0.0 0.0 0.00 0.00 0.00 96 1016.1
20260905114440 21 286 0.0 0.0 0.00 0.00 0.00 96 1016.1
20260905113938 21 285 0.0 0.0 0.00 0.00 0.00 96 1015.9
20260905113435 21 285 0.0 0.0 0.00 0.00 0.00 96 1015.9
20260905112930 21 285 0.0 0.0 0.00 0.00 0.00 96 1015.9
20260905112425 21 286 0.0 0.0 0.00 0.00 0.00 96 1015.8
20260905111920 21 289 0.0 0.0 0.00 0.00 0.00 96 1015.7
20260905111420 21 290 0.0 0.0 0.00 0.00 0.00 95 1015.7
20260905110914 21 290 0.0 0.0 0.00 0.00 0.00 95 1015.4
20260905110414 21 300 0.0 0.0 0.00 0.00 0.00 95 1015.6
20260905105909 22 299 0.0 0.0 0.00 0.00 0.00 95 1015.6
20260905105409 22 299 0.0 0.0 0.00 0.00 0.00 95 1015.5
20260905104908 22 317 0.0 0.0 0.00 0.00 0.00 95 1015.6
20260905104404 22 258 0.0 0.0 0.00 0.00 0.00 95 1015.4
20260905103904 22 259 0.0 0.0 0.00 0.00 0.00 95 1015.3
20260905103400 22 296 0.0 0.0 0.00 0.00 0.00 95 1015.3
20260905102856 22 300 0.0 0.0 0.00 0.00 0.00 95 1015.4
20260905102352 22 310 0.0 0.0 0.00 0.00 0.00 95 1015.3
20260905101852 22 314 0.0 0.0 0.00 0.00 0.00 95 1015.5
20260905101350 22 314 0.0 0.0 0.00 0.00 0.00 95 1015.5